Probability
0 0 0 0 0 0 0 0 0 0 0 0 3 13 10 13 13 13 19 26 23 10 13 13 10 10 13 13 13 16 16 13 16 19 13 10 13 19 19 19 23 19 19 16
0 0 0 0 0 0 3 3 3 0 0 0 0 3 13 13 10 19 19 26 26 16 16 13 10 10 10 6 6 10 10 19 19 13 16 19 19 19 16 19 16 19 19 19
0 0 0 0 3 3 3 3 3 3 0 0 0 10 10 13 13 16 16 23 26 16 16 10 10 10 10 10 13 13 16 23 19 16 10 16 16 23 16 19 16 16 19 19
0 0 0 3 3 3 3 3 3 3 0 0 3 6 6 6 13 19 19 19 13 19 19 13 10 10 6 10 13 13 16 16 16 16 16 13 13 13 16 16 16 16 13 16
0 0 0 0 0 3 3 3 3 6 0 3 6 13 6 10 6 13 13 13 10 10 6 3 3 0 6 10 10 13 10 13 13 10 13 13 10 13 10 10 16 16 19 16
0 0 0 0 0 3 3 3 3 3 3 3 3 6 3 10 10 13 10 6 6 0 3 3 3 0 0 6 6 6 6 6 10 13 16 13 10 10 13 13 13 13 10 13
0 0 0 0 0 3 0 3 3 0 3 3 3 3 6 10 10 13 10 6 0 0 3 3 3 3 3 3 3 6 6 6 6 10 10 10 10 10 13 13 13 13 13 13
0 0 0 0 3 0 3 0 0 0 3 3 3 13 16 10 10 10 6 6 3 3 3 0 3 3 3 0 3 3 6 6 6 10 10 10 10 10 6 10 13 13 13 16
0 0 0 0 3 3 0 0 3 3 3 3 3 13 13 10 13 10 6 3 3 3 6 3 3 3 3 0 0 3 6 6 10 10 10 10 10 10 10 13 16 16 13 13
0 0 0 0 0 0 0 3 3 3 3 3 6 10 13 16 13 13 10 10 10 10 13 6 3 3 3 3 3 6 6 10 10 13 13 13 13 13 13 16 16 16 16 16
0 0 0 0 0 0 3 3 3 3 3 3 3 6 6 3 6 6 10 10 10 6 6 6 3 6 10 6 3 3 6 6 6 13 13 13 13 13 13 13 16 16 16 16
0 0 0 0 3 6 6 6 3 3 3 10 10 6 6 3 3 3 6 10 3 3 3 3 3 3 6 6 3 3 3 3 3 6 6 6 10 6 3 3 0 0 6 10
0 0 0 3 6 6 6 6 6 3 6 10 10 10 3 3 0 0 0 0 3 3 3 3 3 3 3 3 0 0 0 0 0 0 3 3 6 6 3 3 0 0 0 0
0 3 3 3 6 6 6 3 6 6 6 10 6 6 3 0 0 0 0 0 0 3 3 3 6 0 0 0 0 3 0 0 0 0 0 3 6 6 6 6 6 6 0 0
3 3 3 3 6 3 3 6 10 6 6 6 6 0 0 0 0 0 0 0 0 0 3 3 0 0 0 0 0 0 0 0 3 3 0 3 3 3 6 10 10 6 3 3
3 3 3 6 3 3 3 6 6 6 6 6 0 0 0 0 0 0 0 0 0 0 0 0 0 0 0 0 0 0 0 0 3 3 3 6 6 6 6 10 10 10 10 6
3 6 6 6 3 3 6 6 6 6 6 3 0 0 0 0 0 0 0 0 3 3 3 0 0 3 3 3 3 3 3 0 0 10 10 10 6 6 10 10 6 6 6 3
3 6 6 6 6 6 6 10 3 3 3 0 0 0 0 0 0 0 0 0 3 3 3 3 3 3 3 3 3 3 3 3 6 6 6 6 6 10 6 6 6 6 3 3
3 6 6 3 3 3 6 3 0 0 0 0 0 0 0 0 0 0 0 3 3 3 0 0 0 0 0 0 0 0 0 3 3 3 3 3 6 6 6 6 6 3 3 3
0 3 3 3 3 3 3 0 0 0 0 0 0 0 0 0 0 0 0 0 0 0 0 0 0 0 0 0 0 0 0 3 3 3 3 3 6 6 6 3 3 3 3 3
3 3 3 3 3 3 0 0 0 0 0 0 0 0 0 0 0 0 0 0 0 0 0 0 0 0 0 0 0 3 3 3 3 3 3 3 3 6 3 3 3 3 3 3
3 3 3 3 0 0 0 0 0 0 0 0 0 0 0 0 0 0 0 0 0 0 0 0 0 0 0 0 3 3 3 3 3 3 3 3 3 3 3 0 0 0 0 0
0 0 0 0 0 0 0 0 0 0 0 0 0 0 0 0 0 0 0 0 0 0 0 3 0 0 3 3 3 3 3 3 3 3 3 3 0 0 0 0 0 0 0 0
0 0 0 0 0 0 0 0 0 0 0 0 0 0 0 0 0 0 0 0 0 0 0 0 0 0 0 0 0 0 0 0 0 0 0 0 0 0 0 0 0 0 0 0
0 0 0 0 0 0 0 0 0 0 0 0 0 0 0 0 0 0 0 0 0 0 0 0 0 0 0 0 0 0 0 0 0 0 0 0 0 0 0 0 0 0 0 0
0 0 0 0 0 0 0 0 0 0 0 0 0 0 0 0 0 0 0 0 0 0 0 0 0 0 0 0 0 0 0 0 0 0 0 0 0 0 0 0 0 0 0 0
0 0 0 0 0 0 0 0 0 0 0 0 0 0 0 0 0 0 0 0 0 0 0 0 0 0 0 0 0 0 0 0 0 0 0 0 0 0 0 0 0 0 0 0
Height
5875 5878 5880 5881 5883 5884 5886 5887 5888 5890 5891 5893 5894 5895 5895 5896 5896 5896 5896 5896 5895 5895 5894 5893 5892 5891 5890 5889 5887 5886 5884 5883 5881 5879 5877 5875 5873 5871 5869 5867 5864 5862 5859 5857
5868 5871 5872 5874 5876 5878 5880 5881 5882 5884 5887 5888 5889 5890 5890 5891 5891 5891 5891 5891 5890 5890 5889 5889 5888 5887 5886 5884 5883 5881 5880 5878 5877 5875 5873 5871 5869 5866 5864 5862 5859 5857 5854 5852
5860 5863 5864 5866 5870 5872 5874 5875 5877 5879 5882 5882 5883 5884 5885 5886 5886 5886 5886 5886 5885 5885 5884 5883 5883 5882 5880 5879 5877 5876 5875 5873 5871 5870 5868 5866 5863 5861 5858 5856 5853 5851 5849 5846
5852 5856 5856 5863 5864 5865 5867 5869 5871 5872 5874 5876 5877 5878 5879 5880 5880 5880 5880 5880 5879 5879 5878 5877 5876 5875 5874 5873 5871 5870 5868 5867 5865 5864 5862 5860 5857 5855 5852 5850 5847 5845 5843 5840
5844 5846 5848 5854 5856 5858 5859 5861 5864 5865 5867 5869 5870 5871 5872 5872 5873 5873 5873 5873 5873 5872 5871 5870 5869 5868 5867 5866 5864 5863 5861 5860 5858 5857 5855 5853 5850 5848 5846 5843 5841 5838 5836 5833
5835 5837 5840 5847 5848 5849 5852 5853 5857 5858 5860 5862 5863 5864 5865 5865 5865 5865 5865 5865 5865 5865 5864 5864 5862 5861 5860 5858 5857 5855 5854 5853 5851 5849 5847 5845 5843 5841 5838 5836 5833 5831 5828 5826
5827 5829 5832 5837 5840 5842 5844 5847 5849 5850 5852 5853 5854 5856 5857 5857 5857 5857 5857 5857 5857 5857 5857 5856 5854 5853 5852 5850 5849 5848 5846 5845 5843 5841 5839 5837 5835 5832 5830 5827 5825 5823 5820 5818
5818 5821 5826 5829 5831 5834 5835 5837 5839 5841 5843 5845 5846 5847 5848 5848 5849 5849 5849 5849 5849 5849 5848 5847 5846 5844 5843 5842 5841 5839 5838 5836 5834 5831 5830 5828 5825 5823 5821 5818 5816 5813 5811 5809
5810 5814 5817 5819 5822 5824 5826 5828 5830 5832 5834 5836 5837 5838 5839 5840 5840 5840 5840 5840 5840 5839 5839 5838 5837 5836 5834 5833 5831 5830 5828 5826 5824 5822 5820 5818 5815 5813 5811 5809 5806 5804 5801 5799
5800 5803 5807 5810 5812 5814 5816 5819 5820 5822 5824 5826 5828 5829 5830 5831 5831 5831 5831 5831 5830 5829 5829 5828 5827 5826 5825 5823 5822 5820 5818 5816 5814 5812 5810 5808 5806 5803 5801 5798 5796 5793 5791 5788
5790 5794 5797 5800 5802 5805 5807 5809 5811 5813 5815 5816 5818 5820 5821 5821 5821 5821 5821 5820 5820 5818 5818 5817 5816 5815 5814 5813 5811 5809 5807 5806 5804 5802 5800 5797 5795 5793 5790 5788 5785 5783 5780 5777
5781 5785 5787 5790 5793 5795 5798 5799 5801 5803 5805 5807 5808 5810 5810 5811 5811 5811 5810 5810 5809 5807 5806 5806 5805 5804 5803 5802 5800 5798 5796 5795 5794 5791 5789 5787 5784 5782 5779 5777 5774 5771 5768 5766
5771 5774 5777 5780 5783 5785 5788 5790 5791 5793 5795 5797 5798 5799 5800 5801 5801 5801 5800 5799 5799 5797 5795 5795 5794 5793 5792 5790 5789 5788 5786 5784 5782 5780 5778 5776 5773 5770 5768 5765 5762 5760 5757 5754
5761 5764 5767 5770 5773 5775 5778 5780 5782 5784 5785 5786 5788 5789 5789 5790 5790 5790 5790 5789 5789 5788 5786 5785 5784 5782 5781 5780 5779 5777 5775 5773 5771 5768 5766 5764 5762 5759 5756 5753 5751 5749 5746 5743
5752 5754 5757 5760 5763 5765 5768 5770 5772 5774 5775 5776 5777 5778 5778 5778 5779 5779 5778 5778 5777 5777 5776 5775 5774 5773 5771 5769 5767 5765 5763 5761 5759 5757 5755 5753 5750 5748 5744 5741 5739 5737 5734 5731
5743 5745 5748 5751 5754 5756 5758 5760 5762 5763 5764 5765 5766 5766 5767 5768 5768 5768 5767 5767 5766 5766 5766 5765 5764 5763 5761 5759 5756 5755 5753 5751 5749 5747 5744 5742 5739 5736 5733 5730 5727 5724 5722 5719
5734 5736 5739 5742 5745 5747 5749 5750 5752 5752 5753 5754 5755 5756 5756 5757 5757 5758 5757 5756 5756 5756 5755 5754 5753 5752 5750 5748 5746 5744 5742 5740 5738 5735 5733 5731 5728 5725 5722 5719 5715 5712 5710 5706
5726 5728 5731 5733 5735 5737 5739 5740 5741 5742 5743 5743 5744 5744 5745 5745 5746 5747 5747 5746 5746 5745 5745 5744 5743 5741 5740 5738 5736 5734 5731 5729 5727 5724 5722 5719 5716 5713 5710 5707 5703 5700 5698 5695
5718 5721 5723 5725 5726 5728 5729 5730 5731 5732 5732 5733 5733 5734 5735 5735 5735 5736 5736 5736 5736 5736 5735 5733 5732 5731 5729 5727 5725 5723 5720 5718 5716 5714 5711 5708 5705 5702 5698 5695 5692 5689 5686 5684
5711 5713 5715 5716 5718 5720 5721 5722 5722 5723 5723 5723 5724 5725 5725 5725 5726 5726 5726 5726 5726 5725 5724 5723 5722 5720 5719 5717 5715 5713 5710 5708 5706 5703 5700 5697 5694 5691 5688 5685 5682 5679 5676 5673
5705 5706 5707 5709 5710 5712 5712 5713 5714 5714 5715 5715 5715 5716 5716 5717 5717 5717 5716 5717 5716 5715 5715 5713 5712 5710 5709 5707 5705 5702 5700 5698 5696 5693 5690 5687 5684 5681 5678 5675 5673 5670 5667 5664
5698 5700 5701 5702 5703 5703 5704 5705 5705 5706 5706 5706 5707 5708 5708 5708 5708 5708 5708 5708 5707 5706 5705 5704 5702 5701 5699 5697 5695 5693 5691 5688 5686 5683 5681 5678 5675 5672 5669 5666 5664 5661 5658 5656
5692 5693 5694 5695 5696 5696 5697 5697 5698 5698 5698 5698 5699 5700 5700 5700 5700 5700 5700 5699 5698 5697 5696 5694 5693 5691 5690 5688 5686 5684 5682 5679 5677 5674 5671 5669 5666 5663 5660 5657 5655 5652 5650 5647
5686 5687 5687 5689 5689 5690 5691 5691 5690 5690 5691 5692 5692 5692 5693 5693 5692 5692 5691 5691 5690 5689 5687 5686 5684 5683 5681 5679 5677 5675 5673 5670 5667 5665 5663 5660 5657 5655 5652 5649 5646 5644 5641 5639
5680 5680 5681 5682 5683 5684 5685 5685 5685 5685 5686 5686 5686 5686 5686 5686 5685 5685 5684 5684 5683 5681 5680 5678 5677 5675 5673 5671 5669 5667 5664 5662 5659 5657 5654 5652 5649 5647 5644 5642 5639 5637 5634 5631
5674 5675 5676 5677 5678 5679 5680 5680 5680 5680 5681 5681 5681 5681 5681 5680 5680 5679 5678 5678 5676 5675 5673 5671 5670 5668 5666 5663 5661 5659 5657 5654 5652 5649 5647 5644 5642 5640 5637 5635 5632 5630 5627 5624
5670 5671 5672 5672 5673 5674 5675 5675 5676 5676 5676 5676 5676 5676 5676 5675 5675 5674 5673 5672 5671 5669 5667 5666 5664 5662 5659 5657 5655 5653 5650 5647 5645 5643 5640 5638 5636 5633 5630 5628 5625 5623 5620 5618
Wind_Speed
29 28 28 27 27 27 27 27 26 25 24 22 21 19 18 18 19 18 18 17 17 17 16 16 16 16 17 17 18 18 18 18 18 19 19 19 19 20 21 21 21 21 21 21
32 31 30 30 29 28 28 28 28 28 26 24 23 22 21 21 20 20 20 20 19 18 19 19 19 18 18 19 19 19 20 20 20 21 21 21 22 23 23 23 24 24 23 23
34 33 33 32 30 30 30 29 29 29 27 27 25 24 24 23 22 22 22 22 22 21 22 22 22 21 20 20 21 21 21 22 22 22 23 24 24 25 25 26 26 25 25 25
35 34 36 33 31 31 31 31 31 30 29 28 27 26 26 25 24 24 24 24 24 24 24 24 24 24 23 23 23 24 23 24 24 24 25 26 26 27 27 27 28 27 27 27
36 36 35 34 32 31 32 32 31 31 30 30 29 28 28 28 28 27 26 26 26 26 26 26 26 26 26 26 25 25 25 25 27 27 27 27 28 29 30 30 30 29 29 29
36 36 36 33 32 32 33 33 31 31 31 30 30 30 29 29 30 29 29 28 28 27 28 28 28 28 28 28 27 27 27 28 29 30 30 30 30 31 31 31 31 31 31 31
37 37 36 33 33 33 34 33 32 31 31 30 30 31 30 30 31 30 30 29 29 29 30 30 30 30 30 31 30 30 30 30 31 32 32 32 33 33 33 32 33 33 33 32
38 38 36 34 34 33 33 33 33 33 32 32 32 31 31 32 32 32 32 32 32 32 32 32 33 33 33 33 33 33 33 33 33 33 34 34 34 34 35 35 35 34 34 34
38 38 36 36 35 34 34 34 34 35 35 34 33 33 32 33 33 34 35 35 35 35 34 34 35 35 35 35 34 34 34 34 35 35 36 35 36 36 36 36 36 35 35 35
38 37 36 36 35 35 35 35 35 36 36 35 34 33 33 34 35 35 36 37 36 36 36 36 36 36 36 37 36 36 36 36 36 37 37 36 37 37 37 37 37 37 37 37
37 36 36 36 36 36 35 36 36 36 36 36 35 33 33 35 36 35 35 36 37 38 37 36 37 37 36 37 37 37 38 38 38 38 38 38 38 38 38 38 39 39 39 39
36 36 35 35 36 36 35 35 36 37 37 36 36 35 35 35 35 36 36 36 36 36 36 36 37 37 36 37 38 38 37 38 39 39 39 39 39 38 39 40 40 40 40 40
36 36 36 35 36 36 35 35 35 36 36 36 36 36 36 35 35 37 37 37 37 36 37 37 37 36 36 37 38 39 39 39 39 39 39 40 39 39 39 40 40 41 41 42
35 36 36 36 35 35 35 35 35 35 35 35 35 36 36 37 37 37 38 38 38 37 37 37 37 37 37 38 39 39 39 39 39 39 39 39 39 39 40 40 40 41 41 42
35 34 34 34 35 34 34 34 34 35 35 35 36 36 37 37 37 37 38 38 38 37 36 36 36 36 37 39 40 40 40 40 39 39 38 39 39 40 40 40 40 41 41 42
33 33 33 33 34 34 33 33 34 34 35 36 37 37 37 38 38 38 38 39 38 37 37 37 37 37 38 40 40 40 40 40 40 40 39 39 39 40 40 40 40 41 41 41
31 31 31 31 31 32 33 33 34 33 34 36 37 38 38 38 38 38 38 38 38 38 37 37 37 37 38 39 39 40 40 40 39 40 40 40 40 40 41 42 41 41 41 41
30 29 30 30 30 31 32 33 33 33 34 35 35 36 37 37 37 37 38 39 38 36 36 36 37 37 37 38 39 39 40 40 39 39 39 40 41 41 41 41 41 40 39 39
28 29 30 29 29 29 29 30 31 32 33 33 33 34 35 36 37 37 37 36 36 36 36 36 36 36 37 38 38 39 39 39 38 38 38 39 39 39 39 39 39 38 37 36
27 28 28 28 28 29 29 29 30 30 31 32 32 32 33 33 34 34 34 34 35 36 36 36 35 35 36 36 37 37 37 37 37 37 37 37 37 37 37 37 37 36 35 33
26 26 26 26 28 28 29 29 30 31 31 31 31 31 31 32 33 32 32 33 34 34 35 35 34 34 35 35 36 35 35 35 35 35 36 36 36 35 35 34 34 33 32 32
25 25 25 26 26 27 27 27 28 28 29 30 29 29 30 30 30 30 30 31 31 32 32 33 33 33 34 34 33 33 33 33 33 33 34 34 34 33 32 32 32 31 31 32
24 23 24 24 25 25 25 25 26 27 27 27 27 27 28 29 29 29 29 29 29 29 30 31 31 32 32 31 31 31 31 31 32 32 31 31 31 31 30 30 30 29 29 29
24 24 24 24 23 23 22 22 23 24 24 24 24 25 26 27 27 26 26 26 26 27 28 28 29 29 29 29 29 28 29 29 29 29 29 29 29 28 28 28 28 27 27 27
22 22 22 22 21 21 21 21 21 21 22 23 23 23 24 23 23 23 23 24 24 24 24 24 25 26 26 26 26 26 27 28 28 27 27 27 27 26 26 26 26 25 25 25
17 17 18 18 18 18 19 19 20 20 21 22 21 21 21 20 20 21 21 21 21 21 22 22 23 24 23 24 24 25 25 25 24 24 24 24 24 24 25 25 25 25 25 25
16 16 16 18 19 19 18 17 17 17 18 18 19 19 19 18 18 19 20 21 21 21 21 21 22 22 23 23 23 24 23 22 22 22 22 23 24 24 24 23 23 23 23 23
Wind_Direction
242 242 244 245 246 249 250 254 256 259 261 265 268 270 270 268 265 264 270 276 283 286 287 289 289 293 297 297 298 299 301 303 305 306 306 306 306 306 306 307 308 309 309 308
244 244 244 245 245 247 250 253 256 258 260 263 265 268 270 270 268 268 270 274 279 284 285 288 291 293 295 293 295 296 297 299 301 302 302 303 303 304 305 305 305 304 304 305
245 245 247 246 245 247 250 252 254 257 259 260 262 264 267 270 271 272 274 275 277 280 284 287 288 290 292 291 291 294 294 296 298 299 299 301 301 300 300 301 301 301 302 303
246 246 247 248 248 250 252 253 255 256 258 260 261 264 266 268 270 272 274 276 277 278 281 283 287 288 289 290 290 291 292 293 294 295 296 298 299 299 299 298 297 298 298 298
247 248 249 248 249 251 252 253 254 256 259 260 261 264 266 268 269 271 272 274 276 277 279 282 285 287 287 288 288 288 288 290 292 293 293 294 295 296 297 298 297 296 298 298
248 249 250 251 251 252 254 255 256 258 259 260 261 262 265 267 268 269 270 270 272 275 277 280 284 286 287 287 287 287 287 288 289 290 291 292 293 294 296 296 296 295 295 296
249 251 252 253 253 253 254 256 257 258 258 259 260 261 262 263 264 265 269 269 272 275 277 281 283 284 285 286 287 287 287 287 288 289 290 291 291 292 292 292 292 294 295 295
250 252 253 253 253 253 256 257 257 258 259 260 260 261 261 262 262 264 266 268 271 273 276 279 281 283 284 284 286 286 287 287 287 288 290 290 291 291 290 290 291 292 293 293
251 253 255 254 253 254 255 257 258 258 259 259 260 261 261 261 263 265 266 269 271 273 275 279 280 281 283 283 286 287 286 286 287 288 289 289 290 290 290 290 290 290 290 291
252 252 253 254 254 254 256 257 257 258 259 259 260 261 261 261 263 265 266 269 271 273 274 277 278 279 280 281 284 286 285 285 286 288 289 289 289 289 289 288 288 289 290 290
251 253 255 254 255 255 256 256 256 256 258 260 260 261 262 263 265 266 267 270 272 273 273 276 276 277 279 280 282 284 283 284 286 287 288 288 288 289 289 289 289 290 290 291
252 253 254 255 255 256 257 256 256 256 257 260 261 262 263 264 266 268 271 272 273 275 275 276 277 277 278 279 281 283 285 284 285 286 288 288 288 288 289 289 288 289 290 291
252 253 253 254 254 255 255 255 255 256 258 261 261 262 263 264 266 268 270 272 274 276 276 277 277 277 279 280 282 283 284 285 286 286 287 288 289 289 289 288 288 289 290 291
252 252 253 253 253 252 253 254 255 256 257 260 261 262 264 265 267 268 269 271 274 275 276 276 276 278 280 282 284 285 286 286 286 287 289 289 289 289 289 289 289 289 290 291
251 251 252 252 252 253 254 255 257 258 258 259 261 263 265 266 267 268 269 270 272 274 275 276 279 282 283 285 286 286 288 288 286 287 288 289 290 290 290 290 290 290 290 291
251 251 252 252 253 255 258 259 260 259 259 260 260 262 264 266 268 269 271 272 273 274 276 277 279 282 284 286 287 287 288 288 287 287 288 289 290 291 291 291 291 291 291 291
251 251 251 252 253 255 257 260 261 260 261 262 262 262 264 265 266 268 269 270 272 274 276 278 280 282 284 286 287 288 288 289 290 289 289 289 290 291 291 292 292 291 291 291
250 250 250 252 252 255 257 259 260 261 261 262 262 264 265 266 267 267 270 272 273 275 278 280 281 283 285 287 288 289 289 289 291 291 290 290 290 290 291 292 293 293 294 294
249 250 252 253 253 255 258 260 261 263 264 264 265 266 267 269 270 272 273 274 275 276 278 281 282 284 285 287 287 288 289 290 291 291 292 292 292 291 291 292 292 293 293 294
251 252 254 255 255 256 258 260 262 265 266 267 267 268 268 269 271 271 273 275 277 278 279 281 284 286 286 287 287 288 290 291 292 292 292 293 293 292 293 294 294 294 293 293
250 252 254 254 255 257 259 262 263 264 266 267 267 269 271 272 271 272 274 276 278 279 281 283 284 285 285 286 287 289 290 292 293 293 293 294 293 293 293 294 294 295 294 294
249 250 252 254 255 257 260 263 265 265 266 265 266 268 270 271 270 272 274 277 279 281 282 283 284 284 285 286 288 289 291 292 293 294 294 295 294 294 294 294 295 296 295 295
252 254 256 256 257 257 260 263 265 266 266 265 266 267 269 270 272 273 276 279 282 283 284 284 284 285 286 287 289 291 292 293 293 294 295 296 296 296 297 296 297 298 298 298
254 255 257 259 260 260 261 264 265 266 267 267 268 270 270 271 274 276 279 281 283 284 285 286 285 285 286 288 291 294 295 294 293 294 296 297 298 298 299 300 299 299 298 299
256 257 257 259 259 259 260 263 266 266 267 270 272 274 273 273 276 280 283 286 288 288 288 288 289 290 291 292 293 295 295 294 295 296 296 297 297 298 300 301 301 301 301 302
256 257 257 258 259 258 259 263 266 268 269 272 275 276 277 278 280 282 286 289 291 291 292 293 293 294 296 297 296 296 295 295 296 297 297 298 299 300 302 303 303 302 302 302
256 258 260 261 261 260 260 265 272 273 271 272 275 277 278 280 282 285 289 293 294 295 295 296 296 296 298 298 298 298 298 298 300 301 301 301 302 303 303 304 304 304 304 304